sat.trackr.live / text

‹ back to catalog

STARLINK-31359

NORAD 58945 · 2024-027Q

PAYLOAD ACTIVE UNKNOWN

§ Identity

Operator
Country
US
Launch date
2024-02-10
Launch site
AFWTR
Launch vehicle
Mass (kg)
RCS (m²)

Purposes: comms

External: N2YO · Heavens-Above · Gunter

§ Orbital elements

Epoch: 2026-05-24T21:16:17.468256Z

Period
94.11 min
Inclination
53.1605°
Eccentricity
0.0001209
Mean motion
15.30202833 rev/d
Perigee alt
474.4 km
Apogee alt
476.0 km
Semi-major
6,853.3 km
B*
6.2878e-5
RAAN
277.2588°
Arg perigee
74.0465°
Mean anomaly
286.0669°
Rev number
12,954

§ Raw data

STARLINK-313591 58945U 24027Q   26144.88631329  .00001504  00000+0  62878-4 0  99972 58945  53.1605 277.2588 0001209  74.0465 286.0669 15.30202833129545

JSON: /api/v1/satellites/58945 · /tle

For live sub-satellite position, see the globe view (requires WebGL).

§ Visibility from observer

Set your observer location to see the next 7 days of passes ≥ 10°. The values pass through the URL so the page stays shareable.

No JS? Fill the form by hand. The geolocation button needs JavaScript.